This is the latest recevied weather packets stored in our database for station/object KJ4EBE. If no packets are shown the sender has not sent any weather packets the latest 10 day(s).
| Time | Temp. | Humidity | Pressure | Rain* | Wind** | Luminosity | Snow |
|---|---|---|---|---|---|---|---|
| 1777674622 | 12.78° C | 93% | 1014.6 hPa | 0 mm | - | 56 W/m² | - |
| 1777674321 | 12.78° C | 92% | 1014.4 hPa | 0 mm | - | 76 W/m² | - |
| 1777674016 | 12.78° C | 92% | 1014.5 hPa | 0 mm | - | 61 W/m² | - |
| 1777673712 | 12.78° C | 93% | 1014.6 hPa | 0 mm | - | 39 W/m² | - |
| 1777673410 | 12.78° C | 93% | 1014.6 hPa | 0 mm | - | 38 W/m² | - |
| 1777673107 | 12.78° C | 93% | 1014.7 hPa | 0 mm | - | 31 W/m² | - |
| 1777672804 | 12.78° C | 94% | 1014.6 hPa | 0 mm | - | 18 W/m² | - |
| 1777672499 | 12.78° C | 95% | 1014.2 hPa | 0 mm | - | 20 W/m² | - |
| 1777672194 | 12.78° C | 95% | 1014.4 hPa | 0 mm | - | 36 W/m² | - |
| 1777671890 | 12.78° C | 95% | 1014.1 hPa | 0 mm | - | 58 W/m² | - |
| 1777671585 | 12.78° C | 95% | 1013.9 hPa | 0 mm | - | 58 W/m² | - |
| 1777671283 | 12.78° C | 95% | 1013.6 hPa | 0 mm | - | 65 W/m² | - |
| 1777670978 | 12.78° C | 95% | 1013.6 hPa | 0 mm | - | 65 W/m² | - |
| 1777670676 | 12.78° C | 94% | 1013.6 hPa | 0 mm | - | 71 W/m² | - |
| 1777670372 | 12.78° C | 95% | 1013.5 hPa | 0 mm | - | 61 W/m² | - |
| 1777670070 | 12.78° C | 95% | 1013.5 hPa | 0 mm | - | 44 W/m² | - |
| 1777669767 | 12.78° C | 96% | 1013 hPa | 0 mm | - | 92 W/m² | - |
| 1777669464 | 12.78° C | 96% | 1013.2 hPa | 0 mm | - | 115 W/m² | - |
| 1777669160 | 13.33° C | 96% | 1013.3 hPa | 0 mm | - | 87 W/m² | - |
| 1777668857 | 12.78° C | 96% | 1013.2 hPa | 0 mm | - | 95 W/m² | - |
| 1777668554 | 12.78° C | 97% | 1013.1 hPa | 0 mm | - | 95 W/m² | - |
| 1777668250 | 13.33° C | 97% | 1013.1 hPa | 0 mm | - | 100 W/m² | - |
| 1777667946 | 13.33° C | 98% | 1013.2 hPa | 0 mm | - | 85 W/m² | - |
| 1777667644 | 13.33° C | 99% | 1012.9 hPa | 0 mm | - | 137 W/m² | - |
| 1777667341 | 12.78° C | 99% | 1013.1 hPa | 0 mm | - | 152 W/m² | - |
* Rain latest hour (hover to see other rain measurements)
** Current wind speed in m/s (hover to see current wind gust speed)